Location: Olda
(45.8833°N, 9.5500°E)
Time: 14:09:31
(UTC+00:00)

Cosmos 2219 Rocket - Pass Details

Date: 03 March 2021
Orbit: 826 x 848 km, 71.0° (Epoch: 15 April)

Event Time Altitude Azimuth Distance (km) Brightness Sun altitude
Rises 17:42:16 0° 145° (SE) 3,354 5.0 -6.2°
Reaches altitude 10° 17:46:36 10° 113° (ESE) 2,431 4.0 -6.9°
Maximum altitude 17:48:16 11° 95° (E) 2,339 3.8 -7.2°
Drops below altitude 10° 17:49:56 10° 78° (ENE) 2,440 4.0 -7.5°
Enters shadow 17:53:28 - 50° (NE) 3,159 4.7 -8.1°
